User: anonymous   Login
Location: Unspecified
(0.0000°N, 0.0000°E)
Time: 00:50:52
(UTC+00:00)
Language:

CLOUDSAT - Orbit

View from above orbital plane
View from above orbital plane
View from above satellite
View from above satellite

Ground track
Ground track

The orbit data is extracted from the following two-line orbital elements,

1 29107U 06016A   17084.86174176 +.00000097 +00000-0 +31564-4 0  9991
2 29107 098.2114 030.0901 0000918 045.6589 314.4685 14.57128710580138
Epoch (UTC): 25 March 2017 20:40:54
Eccentricity: 0.0000918
inclination: 98.2114°
perigee height: 702 km
apogee height: 703 km
right ascension of ascending node: 30.0901°
argument of perigee: 45.6589°
revolutions per day: 14.57128710
mean anomaly at epoch: 314.4685°
orbit number at epoch: 58013

The dashed part of the orbit path shows where the satellite is in the earth's shadow,  

DLR